Weather Service Report


253 
ASUS41 KPHI 211912
RWRPHI

REGIONAL WEATHER ROUNDUP
NATIONAL WEATHER SERVICE MOUNT HOLLY NJ
200 PM EST SAT JAN 21 2017

NOTE:  "FAIR" INDICATES FEW OR NO CLOUDS BELOW 12,000 FEET WITH NO
SIGNIFICANT WEATHER AND/OR OBSTRUCTIONS TO VISIBILITY.

 * = STATION DOES NOT REPORT PRECIPITATION (E.G. RAIN, SNOW, ETC.) 
        OR FOG.

NJZ015>026-212000-
SOUTHERN NEW JERSEY
  
CITY           SKY/WX    TMP DP  RH WIND       PRES   REMARKS
POMONA         CLOUDY    48  45  89 SW7       29.84F FOG              
WILDWOOD*      CLOUDY    47  46  97 SW6       29.86F FOG              
MILLVILLE      CLOUDY    46  46 100 SW3       29.85F FOG              
WRIGHTSTOWN    CLOUDY    46  45  96 W7        29.81F FOG              
MOUNT HOLLY    CLOUDY    46  44  93 SW5       29.83F FOG              
TRENTON        CLOUDY    46  45  96 SW6       29.82F FOG              

$$
NJZ001>014-212000-
NORTHERN NEW JERSEY
  
CITY           SKY/WX    TMP DP  RH WIND       PRES   REMARKS
SUSSEX         CLOUDY    46  44  93 SW3       29.79F                  
ANDOVER*         N/A     44  43  96 SW5       29.80F                  
MORRISTOWN     CLOUDY    46  45  93 SW7       29.81F                  
NEWARK         CLOUDY    47  43  86 SW8       29.81F                  
TETERBORO      MOSUNNY   49  44  83 S8        29.80F                  
CALDWELL       MOSUNNY   48  43  82 W6        29.81S                  
SOMERVILLE     CLOUDY    47  43  86 CALM      29.80F                  
ALLAIRE*       CLOUDY    47  45  93 W6        29.83F FOG              
TOMS RIVER*    CLOUDY    47  46  97 W5        29.84F FOG              

$$
PAZ043-044-047-054-055-060>062-066>071-212000-
EASTERN PENNSYLVANIA
  
CITY           SKY/WX    TMP DP  RH WIND       PRES   REMARKS
PHILADELPHIA   CLOUDY    46  44  93 SW6       29.84F FOG              
NORTH PHILA    CLOUDY    48  45  89 SW5       29.85F FOG              
BLUE BELL*     CLOUDY    43  43 100 CALM      29.82F                  
DOYLESTOWN     CLOUDY    46  45  96 SW6       29.82F FOG              
QUAKERTOWN*    CLOUDY    45  45 100 SW5       29.83S                  
PERKASIE*      FOG       45  45 100 SW3       29.83S VSB 1/2          
POTTSTOWN      CLOUDY    45  44  97 S3        29.83F FOG              
LANCASTER      CLOUDY    45  45 100 SW3       29.83F FOG              
COATESVILLE    CLOUDY    45  45 100 CALM      29.83S FOG              
READING        CLOUDY    46  46 100 W6        29.82F FOG              
ALLENTOWN      FOG       47  43  86 W5        29.82F VSB 1            
MOUNT POCONO   MOSUNNY   54  44  69 W10       29.77F                  
HAZLETON       SUNNY     55  48  76 CALM      29.80F                  
LEHIGHTON        N/A     45  45 100 W3        29.82F FOG              
WILKES BARRE   CLOUDY    46  45  96 W3        29.78F FOG              

$$
DEZALL-MDZ008-012-015-019-020-212000-
DELAWARE AND EASTERN MARYLAND
  
CITY           SKY/WX    TMP DP  RH WIND       PRES   REMARKS
WILMINGTON     CLOUDY    47  46  97 SW5       29.84F                  
DOVER          CLOUDY    46  46 100 S6        29.84F                  
GEORGETOWN     CLOUDY    49  47  93 SW5       29.85F                  
EASTON         CLOUDY    48  46  93 SW7       29.87F FOG              
PATUXENT       FOG       45  45 100 SE5       29.85S VSB 1/4          
OCEAN CITY     FOG       46  46 100 S5        29.86F VSB 1/2          
WALLOPS ISLAND FOG       47  47 100 S7        29.86F VSB 3/4          
CAMBRIDGE      CLOUDY    45  45 100 S7        29.85S                  
SALISBURY      CLOUDY    49  47  93 S5        29.85F FOG              

$$
PAZ001-021-NYZ056-072-MDZ011-DCZ001-212000-
OTHER NEARBY LOCATIONS
  
CITY           SKY/WX    TMP DP  RH WIND       PRES   REMARKS
HARRISBURG     FOG       43  43 100 CALM      29.82F VSB 1/2          
STATE COLLEGE  FOG       43  43 100 CALM      29.79F VSB 3/4          
WILLIAMSPORT   CLOUDY    45  42  89 SE3       29.81S FOG              
BINGHAMTON     SUNNY     50  45  83 S6        29.74F                  
NEW YORK CITY  SUNNY     48  43  82 CALM      29.83F                  
BALTIMORE      CLOUDY    48  48 100 CALM      29.83F FOG              
WASHINGTON DC  CLOUDY    50  48  93 SW6       29.85F                  

$$
  

Return to Home page


Western Regional Climate Center, wrcc@dri.edu